Location: La Trinit�
(48.1620°N, 3.4512°W)
Time: 03:12:21
(UTC+00:00)

CZ-4C R/B - Pass Details

Date: 08 May 2021
Orbit: 609 x 1392 km, 63.4° (Epoch: 13 June)

Event Time Altitude Azimuth Distance (km) Brightness Sun altitude
Rises 20:34:29 0° 318° (NW) 3,678 7.7 -8.8°
Reaches altitude 10° 20:37:01 10° 324° (NW) 2,840 6.4 -9.1°
Maximum altitude 20:43:38 48° 38° (NE) 1,515 3.5 -10.0°
Enters shadow 20:51:18 11° 110° (ESE) 3,293 4.7 -10.9°
